Location: Kampong Paya Jaras Dalam
(3.1833°N, 101.5500°E)
Time: 05:49:29
(UTC+00:00)

Thor Agena Rocket - Pass Details

Date: 15 May 2026
Orbit: 755 x 802 km, 99.1° (Epoch: 7 June)

Event Time Altitude Azimuth Distance (km) Brightness Sun altitude
Rises 11:58:58 0° 176° (S) 3,255 6.5 -10.5°
Reaches altitude 10° 12:01:20 10° 180° (S) 2,319 5.8 -11.0°
Maximum altitude 12:06:18 54° 257° (WSW) 924 4.3 -12.2°
Drops below altitude 10° 12:11:13 10° 334° (NNW) 2,285 6.6 -13.3°
Sets 12:13:32 0° 339° (NNW) 3,204 7.4 -13.9°
